Dewpoint
-2 -3 -4 -4 -5 -12 -14 -1 -0 -3 -9 -5 -3 -4 -4 -5 -4 -3 -1 0 2 2 2 0 -0 0 1 2 3 4 5 5 5 5 5 5 4 4 4 4 4 3 2
-3 -3 -4 -3 -3 -4 -12 -14 -2 -2 -7 -10 -8 -8 -8 -7 -6 -6 -6 -3 -1 1 2 2 1 1 0 -0 0 1 2 4 5 5 5 5 4 5 4 3 2 1 1
-7 -6 -5 -3 -2 -3 -4 -14 -14 -6 -6 -10 -11 -11 -9 -8 -8 -8 -8 -7 -8 -5 0 1 3 3 3 3 3 3 1 1 2 2 2 2 2 2 2 2 2 2 2
-9 -10 -9 -6 -3 -2 -2 -4 -16 -14 -12 -11 -12 -12 -11 -10 -9 -9 -10 -10 -10 -11 -9 -4 -1 1 2 2 2 2 3 3 3 3 3 3 3 3 2 2 2 2 2
-9 -9 -10 -8 -3 -2 -2 -3 -7 -16 -16 -14 -14 -14 -13 -13 -11 -11 -11 -11 -12 -12 -11 -10 -8 -6 -6 -1 1 2 2 2 2 2 2 2 2 2 2 2 1 1 1
-10 -9 -8 -9 -8 -4 -3 -3 -4 -10 -16 -16 -16 -16 -15 -14 -13 -13 -13 -13 -12 -13 -13 -12 -11 -8 -7 -4 -2 -0 1 1 1 1 0 -1 1 1 0 0 1 -0 -2
-9 -10 -8 -8 -8 -8 -6 -4 -4 -6 -12 -15 -15 -15 -15 -15 -14 -14 -13 -14 -14 -14 -14 -14 -13 -12 -11 -10 -9 -6 -6 -6 -1 -4 -8 -8 -4 -1 -3 -4 -4 -5 -9
-9 -9 -9 -7 -9 -8 -7 -8 -7 -6 -9 -11 -12 -12 -12 -13 -12 -12 -12 -13 -13 -14 -14 -14 -14 -14 -13 -13 -13 -10 -9 -13 -14 -11 -12 -11 -10 -9 -8 -10 -12 -12 -20
-9 -7 -7 -7 -9 -8 -7 -6 -7 -7 -7 -9 -9 -9 -9 -10 -10 -10 -10 -10 -11 -12 -12 -12 -12 -13 -13 -13 -14 -14 -13 -14 -16 -16 -17 -17 -17 -17 -17 -15 -18 -20 -21
-8 -8 -7 -8 -7 -8 -7 -7 -6 -6 -6 -6 -7 -8 -7 -7 -6 -6 -7 -8 -8 -9 -10 -10 -10 -11 -12 -12 -14 -14 -14 -14 -16 -17 -16 -16 -16 -17 -18 -18 -19 -20 -21
-8 -8 -8 -8 -7 -8 -9 -10 -10 -9 -9 -9 -9 -9 -8 -8 -7 -6 -5 -5 -5 -6 -7 -9 -9 -9 -10 -11 -12 -13 -13 -12 -14 -16 -17 -16 -16 -16 -17 -17 -18 -19 -21
-8 -8 -7 -7 -8 -9 -9 -9 -9 -8 -8 -9 -8 -8 -8 -8 -6 -5 -4 -4 -4 -4 -5 -7 -7 -7 -7 -8 -9 -10 -12 -12 -12 -14 -16 -16 -16 -16 -16 -17 -18 -19 -19
-8 -8 -7 -7 -7 -7 -8 -8 -8 -7 -7 -8 -7 -7 -8 -8 -5 -4 -5 -5 -4 -3 -4 -4 -5 -6 -6 -6 -7 -7 -9 -10 -11 -12 -13 -15 -15 -15 -15 -16 -16 -17 -17
-7 -7 -7 -7 -7 -6 -5 -5 -4 -4 -4 -6 -6 -7 -7 -7 -6 -5 -4 -4 -3 -2 -2 -3 -3 -4 -5 -5 -5 -5 -6 -7 -8 -10 -11 -13 -14 -14 -14 -14 -14 -15 -15
-8 -7 -6 -6 -6 -7 -7 -7 -6 -4 -2 -2 -2 -2 -2 -3 -3 -2 -3 -3 -2 -2 -2 -2 -2 -3 -4 -4 -4 -5 -5 -5 -6 -6 -8 -10 -12 -13 -13 -13 -13 -13 -13
-8 -8 -8 -8 -9 -9 -9 -9 -7 -7 -6 -6 -6 -6 -6 -5 -6 -6 -6 -5 -3 -2 -2 -1 -2 -2 -2 -2 -3 -3 -4 -4 -4 -5 -5 -7 -10 -12 -12 -12 -12 -12 -12
-7 -8 -8 -8 -8 -7 -7 -7 -5 -4 -4 -3 -3 -3 -3 -2 -3 -3 -3 -3 -4 -6 -6 -6 -5 -4 -3 -2 -1 -1 -2 -2 -3 -4 -4 -5 -6 -9 -11 -11 -11 -11 -11
-5 -5 -6 -5 -5 -5 -4 -4 -4 -3 -4 -4 -3 -3 -3 -3 -2 -3 -3 -3 -3 -3 -4 -5 -5 -6 -5 -5 -3 -2 -2 -2 -2 -2 -3 -3 -4 -5 -7 -9 -11 -11 -11
-3 -2 -1 -1 0 0 0 0 -0 -2 -3 -3 -1 -2 -4 -4 -4 -3 -3 -2 -2 -3 -3 -3 -4 -5 -6 -6 -4 -3 -3 -3 -3 -3 -3 -3 -3 -4 -4 -4 -7 -8 -10
-8 -3 -2 -2 -1 -0 0 0 1 1 0 0 -0 -1 -3 -4 -4 -4 -3 -2 -2 -2 -3 -3 -4 -4 -4 -4 -5 -4 -4 -4 -4 -3 -3 -3 -3 -3 -3 -4 -4 -6 -7
-7 -7 -6 -5 -3 -2 -1 -0 -0 -0 -0 -1 -3 -3 -4 -4 -4 -4 -3 -3 -3 -3 -3 -3 -3 -4 -4 -4 -4 -5 -5 -4 -4 -4 -4 -3 -3 -3 -3 -4 -4 -5 -6
-9 -10 -10 -7 -5 -5 -4 -4 -4 -3 -3 -3 -4 -4 -4 -4 -4 -3 -3 -3 -3 -3 -4 -4 -4 -4 -4 -5 -5 -5 -5 -5 -5 -5 -4 -4 -4 -3 -3 -4 -5 -5 -6
-10 -10 -10 -10 -10 -6 -4 -4 -3 -3 -3 -4 -4 -4 -3 -3 -3 -3 -3 -3 -4 -4 -4 -4 -4 -4 -5 -5 -5 -4 -4 -5 -5 -4 -4 -4 -4 -4 -4 -5 -5 -5 -6
-15 -11 -8 -8 -6 -5 -4 -4 -4 -3 -2 -2 -2 -3 -3 -4 -4 -4 -4 -4 -5 -5 -5 -5 -6 -5 -5 -5 -5 -5 -4 -4 -4 -4 -5 -5 -5 -5 -5 -5 -5 -6 -6
-8 -5 -6 -7 -6 -5 -5 -5 -5 -4 -4 -3 -4 -4 -4 -4 -4 -5 -5 -5 -5 -5 -6 -6 -6 -6 -5 -5 -5 -5 -5 -4 -4 -5 -5 -5 -5 -5 -6 -6 -6 -7 -7
-8 -5 -4 -4 -5 -5 -5 -5 -5 -4 -4 -4 -4 -4 -4 -5 -5 -5 -5 -6 -6 -6 -7 -6 -6 -6 -6 -5 -5 -5 -5 -5 -5 -5 -5 -5 -6 -6 -6 -6 -7 -7 -7
Wind_Speed
22 18 17 17 18 18 18 16 14 13 13 12 11 10 10 10 10 10 11 11 11 10 11 11 11 12 12 12 12 11 9 8 11 9 8 7 9 12 12 15 14 13 12
16 17 19 20 20 19 18 17 15 15 14 13 12 11 10 10 11 11 11 11 13 12 9 10 10 12 14 14 15 14 14 13 13 14 13 12 13 15 17 17 16 15 15
18 21 23 23 22 20 19 19 18 16 16 14 14 13 12 12 12 13 13 12 13 12 10 10 10 10 11 12 13 14 14 16 16 18 18 17 16 15 14 14 13 13 15
18 20 21 21 21 21 21 20 19 18 18 16 16 15 15 14 13 14 14 13 13 12 12 11 10 11 12 13 14 13 14 14 13 14 15 15 13 11 10 12 14 14 16
21 21 20 19 20 22 21 20 20 20 19 18 18 17 17 17 15 16 15 15 15 14 13 13 12 13 13 12 13 12 12 11 11 12 12 12 12 13 14 14 13 13 14
24 23 20 19 19 20 21 20 21 21 20 20 20 19 19 18 18 18 18 17 16 16 15 14 15 15 14 14 14 13 12 13 13 15 15 14 13 13 12 13 14 15 16
26 25 22 21 20 19 19 21 21 21 21 21 21 21 21 20 19 20 20 20 20 18 18 17 17 17 16 16 16 19 15 15 15 15 13 13 13 13 13 14 14 14 14
25 25 22 22 21 20 20 20 20 21 22 22 22 22 23 22 21 21 22 22 22 21 20 19 20 18 18 18 18 18 16 16 15 14 14 14 14 14 14 14 14 14 13
23 20 19 21 22 21 22 20 20 22 22 23 23 24 25 24 23 23 24 24 25 24 22 21 22 20 18 19 20 18 17 17 16 16 15 15 14 14 14 14 13 13 14
22 22 21 20 21 21 20 20 21 22 24 24 25 26 26 27 25 25 25 27 27 26 24 23 23 22 20 19 21 19 20 15 17 17 17 16 15 15 14 14 14 13 13
23 22 20 20 18 19 20 21 23 25 27 27 29 28 29 29 28 27 27 29 29 28 27 25 22 22 22 21 21 21 19 18 18 19 18 18 17 16 15 15 15 14 14
22 21 19 19 20 21 24 24 25 26 28 28 29 29 28 27 27 26 27 28 28 30 29 26 22 22 23 22 22 22 20 21 20 20 20 19 18 16 16 17 16 16 15
25 22 22 23 24 26 27 26 26 25 25 25 26 27 27 23 24 24 24 25 25 28 28 25 24 24 25 24 24 23 23 24 23 22 22 20 17 17 19 18 17 17 16
26 25 24 24 24 22 22 22 22 21 21 21 22 22 21 20 19 19 21 22 23 24 25 26 25 25 26 26 26 26 26 25 24 23 22 21 21 21 20 19 19 18 18
27 25 23 22 22 21 19 19 19 18 18 19 18 18 18 18 14 15 17 19 20 21 22 25 26 26 27 28 28 28 27 27 28 25 24 23 22 22 22 21 20 20 19
30 27 25 24 22 21 21 18 13 14 14 14 14 16 15 16 16 15 16 17 18 19 23 27 27 27 28 28 29 29 29 30 29 27 27 26 26 25 24 23 22 22 21
27 26 25 22 20 18 16 14 14 7 9 11 12 13 15 17 16 18 18 18 19 20 23 27 28 29 29 28 29 29 30 29 28 30 30 29 28 28 28 28 26 24 23
22 19 19 19 17 15 15 15 16 18 18 14 12 16 16 19 20 20 20 21 21 20 21 24 27 29 30 30 30 29 29 29 29 29 30 31 31 31 31 32 30 28 24
21 18 18 17 17 18 19 19 19 20 21 24 25 23 21 24 25 24 23 24 25 25 25 26 25 26 28 29 29 28 28 29 29 29 30 31 32 33 35 33 32 30 26
27 27 27 26 25 25 25 26 27 26 29 32 33 32 30 29 28 27 24 24 27 28 28 29 28 27 26 26 25 25 25 26 26 28 28 28 29 32 35 34 33 32 30
31 31 29 31 31 32 33 36 36 36 36 36 36 33 32 32 31 28 24 25 27 29 30 31 30 27 25 23 24 23 24 25 25 26 27 27 28 28 30 33 33 31 30
31 31 33 33 33 33 34 33 33 34 36 37 36 34 31 27 27 25 28 30 30 31 30 32 30 27 24 24 24 23 23 24 24 25 26 26 26 27 28 29 30 31 31
32 33 34 34 34 33 33 33 32 31 32 32 32 31 26 24 25 28 30 31 32 32 32 33 29 26 24 23 23 24 25 25 24 24 24 25 26 26 26 27 28 30 30
34 33 32 34 33 33 33 34 33 29 29 29 27 26 26 28 28 29 32 32 32 31 31 30 27 25 25 23 24 24 25 24 24 24 23 23 23 22 23 23 25 27 27
35 33 33 32 33 34 35 33 31 29 29 28 28 28 28 28 29 32 31 28 28 29 29 26 24 24 24 25 25 25 25 24 24 23 22 21 21 20 21 21 22 24 24
32 32 34 35 36 36 36 34 33 30 29 28 27 27 29 31 31 28 26 26 26 25 25 25 24 22 22 23 22 22 22 22 21 20 20 19 19 19 19 18 19 21 21
Wind_Direction
303 290 292 299 300 298 294 291 293 294 299 302 300 300 308 309 307 305 309 306 300 291 276 277 280 285 286 286 289 298 300 292 290 302 295 300 318 313 310 305 306 302 297
299 290 292 293 295 293 292 289 287 288 290 294 295 299 302 302 302 305 311 316 319 307 293 283 283 283 282 280 278 281 283 285 287 289 289 287 291 291 295 297 299 298 296
305 297 290 287 286 288 287 286 283 282 284 284 289 292 294 293 296 299 303 306 314 315 303 297 297 301 302 302 300 294 285 278 276 281 284 287 289 292 292 293 296 297 301
317 313 306 292 282 280 281 281 282 280 281 282 282 284 288 287 291 293 297 301 302 309 308 298 294 292 291 294 295 301 299 294 292 292 292 292 295 291 285 288 294 297 300
313 310 310 303 281 276 277 277 278 278 280 280 280 282 284 285 287 287 289 290 294 298 300 298 297 293 298 296 295 296 294 298 297 293 289 288 279 278 280 282 281 286 291
310 309 305 300 294 284 278 274 273 277 279 280 281 281 280 283 283 284 288 287 286 289 291 290 289 288 290 290 291 288 288 283 283 285 285 285 279 275 279 282 285 291 294
302 305 298 303 295 292 285 278 277 277 276 278 279 280 282 281 281 282 283 285 286 286 287 287 285 283 283 283 284 286 291 282 276 282 285 283 282 283 284 284 287 290 293
305 304 299 295 297 287 282 283 281 277 276 278 279 280 280 281 281 280 280 280 282 283 283 283 283 281 279 279 281 281 282 283 286 281 282 283 284 283 282 283 286 286 286
308 305 299 296 294 291 286 284 282 278 277 278 278 277 278 279 278 278 279 279 280 282 281 280 281 280 279 275 276 278 274 276 279 277 276 278 281 282 283 282 283 285 289
309 307 304 302 298 296 294 287 282 280 279 276 276 277 278 278 277 276 275 276 276 278 278 278 278 279 276 272 272 274 273 278 271 270 270 273 276 277 277 276 278 281 285
310 310 308 302 298 296 294 294 292 288 285 283 283 282 280 279 278 275 273 274 276 277 276 275 275 274 272 271 271 270 274 270 269 269 268 269 270 274 274 275 277 279 278
319 313 309 302 298 296 297 302 299 293 288 286 285 285 285 283 280 276 274 273 274 273 275 276 274 269 268 268 268 271 269 267 267 266 266 267 269 268 268 267 270 273 273
332 321 311 304 302 300 298 297 296 296 295 293 291 293 293 289 281 279 278 276 273 272 276 275 271 265 264 265 267 269 266 266 266 264 267 268 266 262 262 267 267 268 271
335 331 324 315 312 310 306 304 302 302 299 296 296 298 299 296 293 289 281 276 274 273 277 277 272 267 262 263 262 265 268 268 267 266 266 264 258 261 264 264 265 266 268
334 335 331 325 322 319 317 314 311 310 306 304 305 303 304 303 307 296 289 283 281 281 278 273 274 273 271 269 268 267 267 267 265 268 267 264 261 259 260 262 263 264 268
331 331 328 323 319 316 316 316 315 312 313 316 315 312 311 309 310 307 300 294 289 287 282 282 282 280 278 278 276 275 273 271 271 271 269 266 262 258 257 256 256 259 263
331 329 326 325 323 323 323 325 329 340 330 333 329 326 323 320 320 319 316 310 303 294 286 287 288 287 285 283 280 278 276 275 275 270 268 265 262 259 255 253 253 253 254
327 330 330 329 328 328 329 329 328 327 326 325 323 317 314 310 310 312 312 312 311 304 297 292 289 288 286 283 279 277 277 274 271 267 265 263 260 258 255 255 253 253 253
311 312 316 317 318 318 319 318 317 315 314 314 316 315 314 306 303 301 303 305 307 308 308 303 298 295 293 289 283 280 276 272 271 270 267 264 260 256 255 252 253 253 252
307 299 299 299 298 296 297 299 301 304 303 306 307 308 312 307 299 295 296 300 304 306 306 304 300 297 296 297 294 285 279 275 272 271 271 268 266 258 254 254 250 245 246
319 314 307 300 295 294 293 293 296 296 297 299 300 301 304 302 298 297 298 307 306 305 304 303 298 291 296 298 297 293 283 279 276 273 272 270 269 267 261 255 250 244 240
318 319 319 312 305 301 299 296 296 297 298 297 297 298 300 296 295 296 300 301 302 302 301 301 294 285 290 293 294 291 288 285 281 276 273 272 269 267 265 258 251 243 236
313 314 314 315 316 310 300 298 298 296 295 295 296 298 300 299 298 297 298 300 299 299 299 301 298 284 282 285 286 285 283 283 281 278 275 274 272 269 265 259 250 241 234
310 307 312 314 311 312 308 305 301 300 299 296 296 294 291 292 294 298 299 298 296 295 298 301 297 288 282 283 283 283 281 280 277 274 272 270 270 268 264 257 248 239 233
310 305 307 314 313 308 308 306 304 297 293 293 291 291 292 294 297 296 295 294 294 296 298 298 297 294 287 284 283 282 282 280 276 271 266 262 261 258 256 253 244 232 224
307 302 304 305 308 310 309 305 304 300 295 290 290 292 295 297 296 293 294 298 298 297 299 299 296 292 288 286 285 283 279 276 273 265 259 255 251 248 247 243 234 220 215
Height
1505 1503 1502 1501 1499 1498 1496 1495 1494 1493 1492 1490 1489 1488 1486 1484 1483 1482 1480 1479 1477 1476 1475 1474 1474 1473 1473 1472 1471 1470 1469 1468 1466 1465 1463 1463 1461 1459 1458 1457 1455 1455 1454
1500 1499 1497 1496 1495 1493 1492 1492 1490 1490 1489 1488 1486 1484 1483 1482 1481 1480 1478 1477 1475 1473 1471 1470 1469 1469 1468 1467 1467 1466 1465 1464 1463 1461 1461 1460 1458 1457 1456 1454 1453 1451 1450
1496 1494 1492 1491 1490 1489 1488 1487 1486 1485 1485 1484 1482 1481 1480 1479 1478 1477 1475 1474 1472 1470 1468 1467 1466 1465 1464 1463 1462 1461 1460 1459 1458 1457 1456 1455 1454 1453 1452 1450 1449 1448 1448
1492 1489 1486 1485 1484 1483 1483 1482 1482 1481 1480 1479 1478 1477 1477 1476 1475 1474 1472 1470 1469 1467 1465 1463 1462 1462 1461 1460 1459 1457 1456 1455 1454 1453 1452 1451 1450 1450 1449 1448 1447 1446 1445
1488 1485 1482 1480 1478 1477 1476 1477 1476 1476 1475 1475 1474 1473 1472 1471 1471 1469 1468 1467 1465 1464 1463 1461 1459 1458 1457 1456 1454 1454 1453 1452 1451 1450 1449 1448 1447 1447 1446 1445 1444 1444 1443
1483 1481 1478 1475 1473 1472 1471 1470 1470 1470 1470 1469 1469 1468 1467 1466 1466 1464 1463 1462 1461 1459 1458 1457 1456 1454 1453 1452 1451 1450 1449 1448 1447 1446 1445 1443 1443 1443 1442 1442 1441 1440 1438
1478 1475 1473 1470 1468 1467 1465 1464 1464 1464 1464 1463 1463 1462 1461 1461 1460 1459 1458 1456 1455 1454 1453 1452 1451 1450 1449 1448 1446 1445 1444 1443 1442 1441 1440 1440 1439 1439 1438 1438 1437 1436 1435
1471 1469 1467 1465 1463 1461 1460 1459 1458 1457 1457 1457 1457 1456 1455 1455 1454 1453 1452 1450 1449 1449 1448 1447 1445 1445 1444 1442 1441 1440 1440 1439 1438 1437 1436 1436 1436 1435 1434 1434 1433 1432 1431
1465 1462 1461 1459 1457 1456 1454 1453 1452 1451 1450 1450 1449 1449 1448 1448 1448 1447 1445 1444 1443 1442 1442 1441 1439 1438 1438 1437 1436 1435 1435 1434 1434 1433 1432 1432 1431 1431 1430 1430 1429 1429 1428
1459 1457 1455 1453 1452 1451 1449 1447 1446 1444 1443 1443 1442 1441 1440 1439 1440 1439 1438 1436 1435 1435 1435 1434 1433 1432 1432 1431 1430 1430 1429 1430 1429 1428 1428 1427 1427 1426 1426 1425 1425 1425 1424
1455 1452 1450 1448 1447 1445 1443 1442 1440 1439 1437 1436 1434 1434 1433 1432 1432 1431 1430 1427 1426 1426 1426 1426 1426 1425 1424 1424 1424 1423 1423 1423 1423 1422 1422 1422 1422 1422 1421 1421 1421 1421 1421
1450 1448 1446 1444 1442 1440 1438 1436 1434 1431 1429 1428 1426 1425 1425 1424 1423 1422 1422 1420 1419 1417 1417 1418 1419 1418 1417 1417 1416 1416 1416 1416 1416 1416 1416 1415 1416 1416 1416 1415 1415 1415 1415
1447 1444 1441 1439 1437 1434 1431 1428 1426 1424 1421 1420 1419 1417 1416 1417 1416 1415 1414 1413 1411 1409 1409 1410 1410 1410 1410 1410 1410 1410 1410 1409 1409 1409 1409 1409 1410 1411 1410 1410 1410 1410 1410
1444 1440 1437 1433 1430 1428 1426 1423 1420 1418 1415 1413 1411 1410 1409 1408 1408 1408 1406 1405 1405 1404 1403 1402 1402 1402 1402 1402 1402 1402 1402 1402 1402 1402 1402 1403 1403 1403 1404 1404 1404 1404 1404
1441 1437 1433 1430 1426 1424 1421 1418 1416 1414 1411 1409 1408 1405 1403 1402 1402 1401 1400 1400 1398 1398 1397 1395 1396 1395 1395 1395 1395 1396 1396 1395 1394 1395 1395 1395 1396 1396 1397 1398 1398 1399 1399
1437 1433 1430 1426 1423 1420 1416 1414 1413 1410 1408 1406 1404 1402 1401 1399 1397 1397 1396 1395 1394 1392 1390 1388 1388 1389 1388 1388 1388 1388 1389 1389 1388 1389 1389 1389 1389 1389 1389 1389 1390 1391 1392
1435 1430 1426 1423 1420 1417 1414 1411 1409 1408 1406 1404 1402 1400 1398 1396 1394 1392 1391 1390 1388 1387 1384 1382 1380 1380 1380 1381 1380 1379 1378 1380 1381 1380 1381 1381 1382 1382 1382 1382 1382 1382 1383
1432 1428 1424 1420 1418 1415 1412 1410 1408 1405 1402 1401 1400 1397 1395 1393 1390 1388 1386 1383 1382 1381 1378 1376 1373 1371 1370 1370 1370 1369 1369 1370 1369 1369 1370 1371 1372 1373 1373 1374 1374 1375 1376
1428 1425 1421 1417 1415 1413 1410 1407 1404 1402 1399 1396 1395 1393 1392 1388 1385 1383 1380 1377 1374 1373 1370 1368 1366 1364 1361 1359 1358 1358 1358 1359 1359 1359 1359 1360 1361 1362 1362 1364 1366 1369 1371
1422 1419 1415 1412 1410 1407 1405 1402 1399 1396 1393 1390 1387 1385 1383 1380 1378 1376 1374 1372 1369 1366 1363 1360 1357 1355 1353 1351 1350 1349 1348 1349 1350 1349 1350 1350 1351 1351 1351 1353 1355 1358 1360
1416 1412 1409 1405 1402 1399 1396 1394 1391 1388 1385 1382 1379 1378 1376 1371 1368 1366 1366 1364 1362 1360 1356 1353 1350 1347 1345 1344 1342 1341 1341 1340 1340 1341 1341 1341 1342 1341 1342 1343 1345 1348 1351
1410 1405 1401 1397 1393 1390 1387 1384 1381 1378 1375 1372 1369 1368 1366 1363 1361 1359 1357 1356 1353 1351 1348 1345 1341 1339 1338 1337 1336 1334 1333 1332 1331 1332 1332 1332 1333 1333 1333 1334 1337 1339 1343
1402 1397 1392 1388 1383 1380 1376 1374 1371 1368 1365 1363 1360 1358 1356 1355 1353 1352 1349 1347 1345 1341 1339 1336 1332 1330 1330 1330 1328 1327 1325 1324 1324 1324 1324 1324 1324 1325 1325 1326 1328 1331 1335
1392 1388 1383 1378 1374 1370 1366 1363 1360 1358 1356 1354 1352 1350 1348 1347 1344 1342 1341 1338 1335 1333 1330 1327 1324 1322 1322 1321 1320 1319 1317 1316 1316 1316 1316 1316 1316 1317 1318 1319 1321 1324 1328
1383 1379 1376 1372 1368 1363 1357 1353 1350 1348 1347 1345 1343 1341 1339 1338 1335 1333 1331 1329 1326 1324 1321 1318 1316 1314 1313 1312 1311 1311 1310 1309 1308 1308 1308 1308 1309 1310 1311 1313 1315 1318 1323
1374 1371 1368 1363 1359 1354 1350 1345 1341 1339 1337 1335 1334 1332 1331 1329 1327 1324 1323 1320 1318 1315 1313 1310 1308 1307 1305 1304 1303 1302 1302 1301 1301 1300 1301 1301 1302 1303 1305 1307 1310 1314 1318